User: anonymous   Login
Location: Boiro
(42.6475°N, 8.8834°W)
Time: 10:08:51
(UTC+02:00)
Language:

FALCONSAT-6 - Orbit

View from above orbital plane
View from above orbital plane
View from above satellite
View from above satellite

Ground track
Ground track

The orbit data is extracted from the following two-line orbital elements,

1 43815U 18099BK  22176.90489129  .00000035  00000-0  78846-5 0  9994
2 43815  97.6462 245.3854 0020604 231.0308 128.9080 14.98500432194049
Epoch (UTC): 25 June 2022 21:43:02
Eccentricity: 0.0020604
inclination: 97.6462°
perigee height: 557 km
apogee height: 586 km
right ascension of ascending node: 245.3854°
argument of perigee: 231.0308°
revolutions per day: 14.98500432
mean anomaly at epoch: 128.9080°
orbit number at epoch: 19404

The dashed part of the orbit path shows where the satellite is in the earth's shadow,  

DLR